Time,TemperatureF,DewpointF,PressureIn,WindDirection,WindDirectionDegrees,WindSpeedMPH,WindSpeedGustMPH,Humidity,HourlyPrecipIn,Conditions,Clouds,dailyrainin,SoftwareType,DateUTC
2013-03-11 00:13:00,46.8,33.0,30.25,NW,313,0.0,-999.0,60,-99.99,,,0.00,weatherlink.com 1.10,2013-03-11 04:13:00,
2013-03-11 00:28:00,46.3,32.0,30.25,NW,313,0.0,-999.0,58,-99.99,,,0.00,weatherlink.com 1.10,2013-03-11 04:28:00,
2013-03-11 00:57:00,46.2,32.0,30.24,NW,313,0.0,-999.0,58,-99.99,,,0.00,weatherlink.com 1.10,2013-03-11 04:57:00,
2013-03-11 01:13:00,44.9,34.0,30.24,NW,313,0.0,-999.0,65,-99.99,,,0.00,weatherlink.com 1.10,2013-03-11 05:13:00,
2013-03-11 01:28:00,44.5,34.0,30.24,NW,313,0.0,-999.0,67,-99.99,,,0.00,weatherlink.com 1.10,2013-03-11 05:28:00,
2013-03-11 01:57:00,44.4,34.0,30.24,NW,313,0.0,-999.0,67,-99.99,,,0.00,weatherlink.com 1.10,2013-03-11 05:57:00,
2013-03-11 02:13:00,43.1,34.0,30.23,NW,313,0.0,-999.0,69,-99.99,,,0.00,weatherlink.com 1.10,2013-03-11 06:13:00,
2013-03-11 02:28:00,42.8,34.0,30.23,NW,313,0.0,-999.0,70,-99.99,,,0.00,weatherlink.com 1.10,2013-03-11 06:28:00,
2013-03-11 02:57:00,42.7,34.0,30.22,NW,313,0.0,-999.0,70,-99.99,,,0.00,weatherlink.com 1.10,2013-03-11 06:57:00,
2013-03-11 03:13:00,41.9,34.0,30.21,NW,313,0.0,-999.0,73,-99.99,,,0.00,weatherlink.com 1.10,2013-03-11 07:13:00,
2013-03-11 03:28:00,41.7,34.0,30.21,NW,313,0.0,-999.0,73,-99.99,,,0.00,weatherlink.com 1.10,2013-03-11 07:28:00,
2013-03-11 03:57:00,41.7,34.0,30.21,NW,313,0.0,-999.0,74,-99.99,,,0.00,weatherlink.com 1.10,2013-03-11 07:57:00,
2013-03-11 04:13:00,40.7,34.0,30.19,NW,313,0.0,-999.0,76,-99.99,,,0.00,weatherlink.com 1.10,2013-03-11 08:13:00,
2013-03-11 04:28:00,40.3,33.0,30.19,NW,313,0.0,-999.0,75,-99.99,,,0.00,weatherlink.com 1.10,2013-03-11 08:28:00,
2013-03-11 04:42:00,40.1,33.0,30.18,NW,313,0.0,-999.0,75,-99.99,,,0.00,weatherlink.com 1.10,2013-03-11 08:42:00,
2013-03-11 04:58:00,39.9,34.0,30.17,NW,313,0.0,-999.0,78,-99.99,,,0.00,weatherlink.com 1.10,2013-03-11 08:58:00,
2013-03-11 05:13:00,39.6,34.0,30.18,NW,313,0.0,-999.0,79,-99.99,,,0.00,weatherlink.com 1.10,2013-03-11 09:13:00,
2013-03-11 05:28:00,39.4,33.0,30.17,NW,313,0.0,-999.0,78,-99.99,,,0.00,weatherlink.com 1.10,2013-03-11 09:28:00,
2013-03-11 05:57:00,39.2,33.0,30.18,NW,313,0.0,-999.0,78,-99.99,,,0.00,weatherlink.com 1.10,2013-03-11 09:57:00,
2013-03-11 06:13:00,38.9,33.0,30.17,NW,313,0.0,-999.0,80,-99.99,,,0.00,weatherlink.com 1.10,2013-03-11 10:13:00,
2013-03-11 06:28:00,38.9,33.0,30.18,NW,313,0.0,-999.0,79,-99.99,,,0.00,weatherlink.com 1.10,2013-03-11 10:28:00,
2013-03-11 06:57:00,38.8,33.0,30.18,NW,313,0.0,-999.0,79,-99.99,,,0.00,weatherlink.com 1.10,2013-03-11 10:57:00,
2013-03-11 07:13:00,38.6,33.0,30.18,NW,313,0.0,-999.0,79,-99.99,,,0.00,weatherlink.com 1.10,2013-03-11 11:13:00,
2013-03-11 07:28:00,38.6,33.0,30.18,NW,313,0.0,-999.0,81,-99.99,,,0.00,weatherlink.com 1.10,2013-03-11 11:28:00,
2013-03-11 07:57:00,38.6,33.0,30.18,NW,313,0.0,-999.0,81,-99.99,,,0.00,weatherlink.com 1.10,2013-03-11 11:57:00,
2013-03-11 08:13:00,38.9,34.0,30.18,NW,313,0.0,-999.0,82,-99.99,,,0.00,weatherlink.com 1.10,2013-03-11 12:13:00,
2013-03-11 08:28:00,39.2,34.0,30.17,NW,313,0.0,-999.0,82,-99.99,,,0.00,weatherlink.com 1.10,2013-03-11 12:28:00,
2013-03-11 08:57:00,39.3,35.0,30.17,NW,313,0.0,-999.0,83,-99.99,,,0.00,weatherlink.com 1.10,2013-03-11 12:57:00,
2013-03-11 09:13:00,42.3,38.0,30.17,NW,316,0.0,-999.0,83,-99.99,,,0.00,weatherlink.com 1.10,2013-03-11 13:13:00,
2013-03-11 09:28:00,43.8,39.0,30.18,NW,316,0.0,-999.0,83,-99.99,,,0.00,weatherlink.com 1.10,2013-03-11 13:28:00,
2013-03-11 09:57:00,44.2,39.0,30.18,NW,316,0.0,-999.0,83,-99.99,,,0.00,weatherlink.com 1.10,2013-03-11 13:57:00,
2013-03-11 10:13:00,48.8,44.0,30.16,NW,321,0.0,-999.0,82,-99.99,,,0.00,weatherlink.com 1.10,2013-03-11 14:13:00,
2013-03-11 10:28:00,50.7,45.0,30.14,NW,321,0.0,-999.0,81,-99.99,,,0.00,weatherlink.com 1.10,2013-03-11 14:28:00,
2013-03-11 10:57:00,51.2,46.0,30.14,NW,321,0.0,-999.0,82,-99.99,,,0.00,weatherlink.com 1.10,2013-03-11 14:57:00,
2013-03-11 11:13:00,57.7,51.0,30.14,WNW,302,0.0,-999.0,79,-99.99,,,0.00,weatherlink.com 1.10,2013-03-11 15:13:00,
2013-03-11 11:57:00,58.6,49.0,30.14,East,88,0.0,-999.0,70,-99.99,,,0.00,weatherlink.com 1.10,2013-03-11 15:57:00,
2013-03-11 12:13:00,62.0,52.0,30.13,East,88,1.0,-999.0,69,-99.99,,,0.00,weatherlink.com 1.10,2013-03-11 16:13:00,
2013-03-11 12:28:00,62.8,52.0,30.12,East,88,1.0,-999.0,67,-99.99,,,0.00,weatherlink.com 1.10,2013-03-11 16:28:00,
2013-03-11 12:58:00,62.9,52.0,30.12,NE,52,1.0,-999.0,67,-99.99,,,0.00,weatherlink.com 1.10,2013-03-11 16:58:00,
2013-03-11 13:13:00,65.2,52.0,30.10,NNW,337,1.0,-999.0,62,-99.99,,,0.00,weatherlink.com 1.10,2013-03-11 17:13:00,
2013-03-11 13:28:00,66.1,52.0,30.09,NE,46,1.0,-999.0,60,-99.99,,,0.00,weatherlink.com 1.10,2013-03-11 17:28:00,
2013-03-11 13:57:00,66.2,52.0,30.09,NE,47,2.0,-999.0,60,-99.99,,,0.00,weatherlink.com 1.10,2013-03-11 17:57:00,
2013-03-11 14:13:00,68.1,52.0,30.06,NW,318,2.0,-999.0,56,-99.99,,,0.00,weatherlink.com 1.10,2013-03-11 18:13:00,
2013-03-11 14:28:00,68.2,51.0,30.05,North,5,1.0,-999.0,54,-99.99,,,0.00,weatherlink.com 1.10,2013-03-11 18:28:00,
2013-03-11 14:57:00,68.2,51.0,30.05,North,360,0.0,-999.0,55,-99.99,,,0.00,weatherlink.com 1.10,2013-03-11 18:57:00,
2013-03-11 15:13:00,68.3,50.0,30.02,ENE,77,2.0,-999.0,53,-99.99,,,0.00,weatherlink.com 1.10,2013-03-11 19:13:00,
2013-03-11 15:28:00,68.1,50.0,30.02,ENE,76,2.0,-999.0,53,-99.99,,,0.00,weatherlink.com 1.10,2013-03-11 19:28:00,
2013-03-11 15:58:00,68.1,51.0,30.01,ENE,76,1.0,-999.0,54,-99.99,,,0.00,weatherlink.com 1.10,2013-03-11 19:58:00,
2013-03-11 16:13:00,68.0,51.0,29.99,North,360,0.0,-999.0,54,-99.99,,,0.00,weatherlink.com 1.10,2013-03-11 20:13:00,
2013-03-11 16:28:00,67.8,50.0,29.98,NE,37,0.0,-999.0,54,-99.99,,,0.00,weatherlink.com 1.10,2013-03-11 20:28:00,
2013-03-11 16:57:00,67.9,50.0,29.98,NE,46,1.0,-999.0,54,-99.99,,,0.00,weatherlink.com 1.10,2013-03-11 20:57:00,
2013-03-11 17:13:00,67.8,51.0,29.99,NNW,336,1.0,-999.0,56,-99.99,,,0.00,weatherlink.com 1.10,2013-03-11 21:13:00,
2013-03-11 17:28:00,67.1,52.0,29.98,WNW,289,0.0,-999.0,58,-99.99,,,0.00,weatherlink.com 1.10,2013-03-11 21:28:00,
2013-03-11 17:57:00,67.0,52.0,29.98,WNW,288,1.0,-999.0,59,-99.99,,,0.00,weatherlink.com 1.10,2013-03-11 21:57:00,
2013-03-11 18:13:00,66.1,53.0,29.97,NNW,328,0.0,-999.0,63,-99.99,,,0.00,weatherlink.com 1.10,2013-03-11 22:13:00,
2013-03-11 18:28:00,65.7,53.0,29.97,NW,309,4.0,-999.0,64,-99.99,,,0.00,weatherlink.com 1.10,2013-03-11 22:28:00,
2013-03-11 18:57:00,65.6,53.0,29.97,WNW,293,0.0,-999.0,64,-99.99,,,0.00,weatherlink.com 1.10,2013-03-11 22:57:00,
2013-03-11 19:13:00,65.0,53.0,29.95,West,277,1.0,-999.0,66,-99.99,,,0.00,weatherlink.com 1.10,2013-03-11 23:13:00,
2013-03-11 19:28:00,64.7,53.0,29.95,NW,310,0.0,-999.0,67,-99.99,,,0.00,weatherlink.com 1.10,2013-03-11 23:28:00,
2013-03-11 19:57:00,64.6,53.0,29.95,West,281,2.0,-999.0,67,-99.99,,,0.00,weatherlink.com 1.10,2013-03-11 23:57:00,
2013-03-11 20:13:00,63.8,54.0,29.96,NNW,338,3.0,-999.0,71,-99.99,,,0.00,weatherlink.com 1.10,2013-03-12 00:13:00,
2013-03-11 20:28:00,63.6,54.0,29.96,NE,34,1.0,-999.0,71,-99.99,,,0.00,weatherlink.com 1.10,2013-03-12 00:28:00,
2013-03-11 20:57:00,63.5,54.0,29.96,WNW,288,0.0,-999.0,71,-99.99,,,0.00,weatherlink.com 1.10,2013-03-12 00:57:00,
2013-03-11 21:13:00,63.0,55.0,29.98,ENE,74,1.0,-999.0,74,-99.99,,,0.00,weatherlink.com 1.10,2013-03-12 01:13:00,
2013-03-11 21:28:00,62.9,55.0,29.96,WNW,293,0.0,-999.0,74,-99.99,,,0.00,weatherlink.com 1.10,2013-03-12 01:28:00,
2013-03-11 21:57:00,62.9,55.0,29.96,WNW,293,1.0,-999.0,74,-99.99,,,0.00,weatherlink.com 1.10,2013-03-12 01:57:00,
2013-03-11 22:13:00,62.3,54.0,29.96,WNW,296,1.0,-999.0,75,-99.99,,,0.00,weatherlink.com 1.10,2013-03-12 02:13:00,
2013-03-11 22:28:00,62.2,54.0,29.96,West,276,0.0,-999.0,75,-99.99,,,0.00,weatherlink.com 1.10,2013-03-12 02:28:00,
2013-03-11 22:57:00,62.1,54.0,29.96,WNW,291,0.0,-999.0,75,-99.99,,,0.00,weatherlink.com 1.10,2013-03-12 02:57:00,
2013-03-11 23:12:00,61.6,54.0,29.96,ENE,60,0.0,-999.0,76,-99.99,,,0.00,weatherlink.com 1.10,2013-03-12 03:12:00,
2013-03-11 23:27:00,61.6,54.0,29.95,NNE,20,1.0,-999.0,76,-99.99,,,0.00,weatherlink.com 1.10,2013-03-12 03:27:00,
2013-03-11 23:57:00,61.6,54.0,29.95,North,350,0.0,-999.0,76,-99.99,,,0.00,weatherlink.com 1.10,2013-03-12 03:57:00,